Location: Baia Mare
(47.6567°N, 23.5850°E)
Time: 12:52:08
(UTC+03:00)

ISS - Pass Details

Date: 22 May 2018
Orbit: 402 x 407 km, 51.6° (Epoch: 27 May)

Event Time Altitude Azimuth Distance (km) Brightness Sun altitude
Rises 02:29:55 0° 291° (WNW) 2,320 0.1 -20.3°
Reaches altitude 10° 02:32:03 10° 296° (WNW) 1,459 -0.9 -20.2°
Maximum altitude 02:35:15 51° 14° (NNE) 513 -3.0 -20.1°
Drops below altitude 10° 02:38:26 10° 92° (E) 1,455 -0.8 -19.9°
Sets 02:40:33 0° 98° (E) 2,313 0.2 -19.8°
